RH
86 84 82 83 84 84 83 81 82 82 78 80 77 69 60 62 35 31 51 30 28 28 18 14 20 17 17 18 17 14 20 25 18 18 19 21 28 51 58 69 64 80 81 90 99
86 86 82 76 72 78 81 82 81 85 85 80 78 67 54 60 50 51 22 24 25 20 15 19 21 19 20 18 18 17 24 21 14 15 17 16 29 56 50 59 64 93 94 100 99
91 90 89 84 76 64 58 55 67 84 91 88 80 66 53 61 63 28 24 23 23 15 11 20 21 14 18 16 16 16 20 14 13 14 15 26 35 44 56 58 61 77 92 94 94
89 90 90 92 89 84 73 54 62 88 90 86 83 77 53 60 34 26 22 24 20 13 18 23 15 14 16 18 15 14 13 12 12 14 14 24 38 66 60 67 58 84 87 89 92
83 87 90 94 91 90 87 71 55 67 84 86 83 82 67 60 42 25 22 20 16 13 24 25 17 15 17 18 19 12 12 12 14 13 18 35 55 77 92 81 77 78 76 88 90
80 79 84 89 90 92 89 84 72 56 71 80 88 88 83 77 23 25 23 21 17 15 19 21 16 13 18 19 22 16 16 15 14 14 20 35 50 60 82 78 80 69 82 88 90
75 79 79 81 85 88 87 86 78 67 58 71 90 99 87 66 11 32 30 29 20 18 19 15 14 16 20 24 20 20 21 17 16 14 29 27 38 65 64 73 74 74 76 83 87
71 70 76 76 78 81 82 83 78 68 56 75 87 98 85 24 17 30 23 22 24 17 16 14 14 18 19 20 21 22 20 24 17 30 33 28 45 48 56 59 71 72 64 76 81
70 73 70 80 73 76 76 79 48 26 57 74 96 89 81 31 32 18 20 23 23 19 15 14 15 20 23 26 31 26 30 23 19 20 40 38 50 46 60 64 61 62 56 61 74
67 66 69 72 78 73 75 72 8 40 66 93 85 76 57 29 22 21 18 17 23 20 19 21 22 28 28 30 40 32 24 23 25 25 37 56 60 48 49 75 62 58 62 65 67
76 69 66 67 76 70 74 67 61 89 81 71 58 43 27 24 21 19 20 17 23 22 29 25 32 36 29 25 22 20 20 21 23 23 33 49 64 46 41 66 58 51 53 64 59
78 75 70 63 74 74 78 82 61 54 74 47 51 47 41 36 34 22 14 23 31 32 25 29 34 26 21 20 21 21 22 19 17 21 24 49 58 47 52 60 47 43 50 58 57
81 79 74 67 78 78 71 71 34 42 72 45 36 28 23 18 28 27 16 18 32 33 27 32 28 21 22 23 23 21 21 18 20 21 19 24 71 70 57 53 47 38 36 48 60
80 83 79 73 83 71 70 63 71 63 94 42 20 20 17 16 24 17 19 20 30 32 28 30 23 23 23 25 20 23 15 17 19 23 34 20 39 70 58 49 47 39 39 44 60
82 82 80 67 79 85 68 63 67 61 55 19 14 10 13 20 21 22 17 21 30 32 29 31 27 27 26 22 18 21 19 21 22 29 26 26 34 30 46 51 43 43 41 43 48
81 83 81 81 71 65 60 55 72 92 90 22 23 26 25 19 20 18 20 20 18 28 26 26 20 20 21 19 18 16 21 21 24 30 48 31 33 40 47 42 37 39 39 39 39
82 83 86 73 75 68 76 77 94 88 12 10 27 25 28 30 24 24 27 28 31 34 36 27 24 19 17 23 19 20 24 42 45 52 56 42 42 38 26 27 24 33 33 36 35
82 79 90 84 62 66 79 96 99 35 30 13 14 26 35 29 31 30 29 33 25 27 35 37 39 22 18 21 24 23 26 55 48 68 52 46 45 36 28 30 22 27 28 30 36
82 89 99 79 68 73 98 97 63 44 21 18 15 21 22 32 31 31 32 33 28 23 33 37 32 18 16 16 17 22 30 24 38 55 64 67 46 36 26 24 24 24 31 34 36
99 99 92 69 74 78 96 80 63 42 27 25 26 21 22 24 34 38 36 26 28 20 21 28 37 23 19 16 18 20 20 34 44 68 68 60 56 44 28 23 18 18 28 30 32
100 99 83 67 85 96 96 81 55 40 36 42 33 26 23 28 25 24 37 26 22 22 20 23 30 33 24 23 22 25 26 30 38 53 65 63 50 34 33 25 19 15 19 22 26
95 99 83 77 98 95 89 71 54 38 38 41 36 34 36 31 30 28 52 42 39 31 27 23 33 38 30 24 18 21 24 28 65 53 54 68 47 26 25 26 18 17 17 22 29
97 97 82 75 96 95 72 71 62 61 46 40 40 33 32 34 37 58 55 47 54 59 46 26 31 40 35 24 22 23 23 24 31 50 53 66 56 31 26 26 17 16 16 21 23
98 99 99 93 66 72 75 73 75 53 60 46 40 36 36 40 32 54 59 50 60 61 70 55 28 33 41 32 30 32 30 25 28 59 53 62 44 34 31 27 24 24 23 23 21
99 98 86 95 94 77 64 59 68 72 50 46 46 44 42 45 38 46 51 62 52 64 67 62 47 29 24 26 27 28 29 30 28 32 44 46 44 36 32 25 22 27 20 20 22
99 99 88 68 77 82 71 69 62 54 50 50 45 39 39 44 37 40 54 74 76 76 76 64 60 42 42 25 25 29 30 29 25 26 33 33 35 28 24 25 42 26 26 23 22
95 91 71 75 81 94 81 71 64 56 48 41 40 42 44 41 40 62 64 70 81 73 85 88 78 50 48 37 34 48 35 27 27 24 23 41 34 23 24 26 26 26 24 24 24
Wind_Speed
18 18 18 18 20 20 22 23 24 24 25 26 28 31 32 34 40 24 6 8 6 9 7 4 7 10 18 6 7 2 2 6 16 4 5 5 4 4 6 9 4 4 3 10 7
16 17 19 20 21 22 24 25 25 24 24 25 27 30 31 35 34 17 9 12 11 8 7 9 8 13 4 6 4 5 4 9 6 2 5 6 6 9 4 5 4 4 4 16 13
16 17 18 18 19 19 21 23 24 23 22 24 25 28 32 33 7 3 5 12 9 8 11 12 16 6 7 5 9 8 6 9 7 3 4 4 7 6 6 4 1 7 6 9 15
16 17 18 19 20 21 22 22 23 22 22 22 24 26 29 11 5 1 3 8 8 9 7 9 7 5 5 7 8 5 8 6 5 3 1 3 6 6 9 1 4 8 9 8 11
18 18 18 19 20 23 24 23 25 24 22 22 23 23 16 5 9 16 9 7 9 10 9 9 8 8 7 7 9 4 5 7 7 9 4 15 10 9 9 6 7 5 6 11 10
18 19 19 20 21 22 25 25 26 26 22 20 20 19 3 10 11 13 9 9 11 12 11 16 8 8 5 8 7 6 7 6 9 10 4 7 5 5 4 8 7 9 9 8 11
19 18 19 20 21 24 25 28 28 28 23 19 18 13 8 19 12 7 8 14 11 16 10 22 19 3 7 8 7 14 7 7 11 8 4 9 6 4 4 9 8 8 7 8 9
21 20 19 20 22 25 28 31 31 31 26 18 15 8 8 21 19 19 19 21 17 18 26 24 10 5 3 7 8 7 7 5 10 9 1 8 3 6 7 9 6 11 10 11 13
20 21 20 20 20 23 29 35 32 23 19 13 8 6 10 15 10 26 23 17 20 22 21 14 5 3 7 4 6 5 8 8 8 5 5 4 2 5 12 12 9 11 12 10 12
18 19 19 20 19 21 27 37 25 20 11 6 8 4 9 5 11 11 21 17 10 6 4 5 2 4 4 2 6 8 4 4 1 5 3 4 4 8 9 18 17 15 14 13 14
20 20 18 19 19 19 24 16 3 1 6 9 10 7 11 16 18 10 17 15 11 6 9 5 4 8 10 13 17 13 12 6 4 6 7 12 8 12 10 5 18 14 15 15 16
21 20 19 18 17 15 16 5 7 4 10 13 19 23 32 25 12 14 20 8 11 12 7 7 15 14 15 18 17 16 10 7 6 1 4 11 11 10 8 6 11 15 16 17 15
22 19 18 16 14 17 20 20 20 25 5 14 19 15 18 16 21 21 11 15 9 9 12 13 12 18 19 18 16 15 7 5 2 5 10 4 3 5 9 10 8 11 13 16 22
21 19 16 12 10 15 10 10 16 15 5 7 9 8 12 13 9 31 19 14 6 16 15 12 19 20 17 18 12 9 6 9 5 1 4 5 3 10 14 14 14 12 14 13 20
22 19 14 10 15 8 7 21 20 5 5 7 6 11 10 18 9 14 36 8 19 16 9 14 7 12 17 12 6 11 7 1 2 3 2 6 0 4 15 12 15 14 18 14 21
21 20 14 11 16 22 23 27 11 3 10 7 6 7 8 19 9 3 13 14 6 15 17 15 14 15 13 9 8 9 4 3 3 1 4 6 2 6 12 19 17 19 19 18 18
21 20 18 15 10 9 14 8 2 7 5 6 4 9 7 8 18 14 7 12 12 15 17 16 22 14 12 7 7 6 2 1 3 2 6 4 3 7 8 9 8 22 20 21 20
20 20 21 18 20 18 10 2 9 10 17 2 1 1 10 8 10 14 16 12 16 13 5 13 14 19 12 14 8 10 7 5 4 2 4 3 3 6 8 8 9 17 22 16 16
19 20 19 22 21 12 3 9 10 6 13 15 17 14 12 8 6 13 16 16 12 19 15 11 18 6 16 9 12 10 6 8 4 3 2 3 6 8 10 12 8 11 9 10 11
21 14 18 27 20 12 4 18 19 23 14 11 9 6 13 9 7 9 8 8 17 20 19 6 7 18 15 10 10 9 3 2 0 4 4 4 4 4 9 10 6 7 13 14 15
20 4 15 29 20 3 12 16 22 15 13 15 15 13 14 11 9 8 11 11 9 14 20 19 15 12 11 13 15 4 7 3 4 5 4 3 5 7 10 5 6 9 7 8 9
9 6 24 35 7 5 20 12 10 12 18 17 8 12 14 17 15 11 5 6 14 10 17 18 4 13 22 11 11 9 13 10 5 5 4 3 10 5 7 5 4 6 8 8 8
5 4 27 30 12 17 18 29 24 21 13 5 14 9 8 17 9 4 2 5 10 13 10 11 15 14 12 12 9 19 13 10 5 5 7 5 5 7 5 8 7 6 6 7 8
6 6 5 13 14 25 23 26 25 9 23 21 17 15 19 17 14 10 3 3 11 14 23 14 14 15 20 5 5 6 7 8 9 5 5 7 5 6 7 2 4 4 0 3 7
6 6 7 13 23 20 18 7 26 18 16 17 15 23 21 9 15 10 3 6 6 12 15 6 10 22 18 14 12 14 21 19 17 14 10 7 7 9 10 6 15 8 5 1 6
6 5 6 7 18 22 19 28 28 20 17 20 19 17 14 19 21 13 4 3 1 9 11 11 12 6 7 19 20 15 16 21 16 6 14 11 12 14 17 10 9 9 8 8 10
10 9 7 13 15 17 28 34 30 17 16 23 17 18 19 23 8 5 4 9 9 4 6 11 10 7 15 3 6 12 18 14 9 15 11 11 13 15 13 12 17 12 17 12 10
Wind_Direction
311 312 312 310 306 308 311 313 317 320 321 325 327 329 332 332 322 327 237 229 231 243 269 252 228 236 250 257 263 258 7 283 281 40 329 85 118 18 115 142 155 138 134 140 180
323 318 316 313 307 305 307 308 308 312 317 320 324 327 330 331 321 276 251 229 230 253 231 222 216 222 243 246 247 157 158 245 260 66 23 342 76 126 122 136 93 114 164 158 141
324 326 323 321 324 322 316 314 306 304 312 317 324 328 328 329 292 270 243 222 234 248 227 272 278 234 239 278 265 251 213 257 288 119 44 73 66 61 118 39 35 149 174 127 125
313 317 322 322 324 324 326 326 320 307 308 315 323 328 329 317 281 352 182 219 234 216 221 287 277 276 259 256 275 247 255 282 276 109 104 33 74 89 67 116 120 138 159 141 109
306 311 315 318 321 320 321 325 322 315 309 313 319 328 342 297 254 278 255 239 216 199 220 243 245 243 253 286 317 226 250 287 316 320 127 79 64 109 106 106 123 139 137 124 126
297 303 308 315 318 318 318 318 318 315 310 311 317 328 279 262 256 262 248 233 213 199 244 243 250 253 285 289 320 297 294 319 302 283 125 88 93 92 123 152 146 118 121 130 121
302 298 305 309 314 316 317 315 312 311 309 303 311 318 249 243 254 186 258 260 238 218 235 255 261 2 333 317 328 312 322 305 276 242 100 114 60 115 152 155 136 128 120 126 130
300 299 301 300 306 311 315 310 304 304 304 297 301 294 252 265 276 266 258 258 242 241 244 264 324 360 316 289 311 298 306 274 285 122 224 115 213 141 160 142 159 154 150 156 161
301 302 297 300 302 308 311 310 299 300 301 293 280 199 263 301 238 246 241 230 224 240 248 273 294 241 297 280 303 260 249 259 263 196 138 96 199 221 145 134 188 178 162 167 157
305 303 303 298 301 309 313 310 295 293 287 250 251 271 264 249 231 229 221 241 214 203 237 247 286 224 302 201 243 259 232 274 297 101 134 103 197 255 156 165 196 186 178 177 169
290 299 306 303 303 307 317 335 17 30 206 216 197 239 301 302 300 183 205 223 231 191 202 220 197 232 239 231 242 260 280 278 219 196 166 188 188 215 234 177 199 187 179 174 161
286 288 300 311 302 296 303 267 251 28 292 247 247 245 261 272 283 291 186 192 209 221 180 230 232 229 241 253 257 262 270 269 317 201 191 167 209 216 247 254 188 178 183 171 156
276 281 288 306 297 283 263 248 291 313 279 279 241 238 231 226 242 257 183 203 205 218 204 212 232 220 236 250 257 271 258 286 252 190 267 220 14 231 253 261 270 179 171 154 163
268 270 279 295 285 283 261 308 293 296 285 257 232 233 213 203 254 229 238 190 221 220 224 233 235 245 248 241 243 267 259 247 251 243 224 171 258 217 224 220 222 176 176 166 171
259 261 264 260 296 301 324 333 327 156 309 244 217 182 178 179 139 205 221 232 208 219 194 226 239 240 244 251 227 257 249 323 301 315 316 308 295 233 209 207 205 191 185 188 177
258 250 247 249 264 262 296 317 320 116 241 267 159 164 135 195 231 3 182 210 212 219 243 253 231 244 240 242 227 255 204 240 294 329 335 267 215 295 183 197 208 199 178 192 182
251 242 230 228 249 294 324 320 165 204 210 247 206 156 186 181 213 224 209 198 205 208 228 244 254 251 247 240 226 258 202 247 337 329 229 335 347 229 236 174 178 175 176 193 188
243 237 230 225 239 260 307 224 229 234 235 311 13 167 187 186 207 214 225 224 219 217 180 226 248 237 232 212 201 242 184 156 220 214 267 12 249 270 331 191 184 172 183 190 177
235 231 220 225 227 242 229 207 227 217 203 254 282 299 273 196 194 195 220 235 243 216 209 201 237 245 232 233 193 239 210 187 175 39 64 250 281 301 276 231 205 202 181 212 203
222 212 211 217 213 213 202 227 235 221 264 292 272 255 284 303 230 187 203 209 233 215 213 237 241 238 253 218 237 186 189 237 346 156 225 219 242 234 266 232 210 152 186 217 224
203 212 185 205 186 205 221 227 243 253 240 256 276 278 289 294 307 318 301 245 213 213 206 216 239 275 241 226 211 210 219 195 162 150 197 207 249 192 218 244 196 182 159 149 150
196 211 177 172 185 209 225 205 234 249 213 252 265 268 279 291 299 311 295 234 339 334 206 210 189 232 253 277 221 198 203 200 146 200 191 180 253 198 184 263 252 229 179 168 150
204 163 180 172 201 217 230 234 247 254 265 279 236 238 261 274 289 195 301 335 15 -0 321 219 222 240 273 254 257 215 215 200 190 135 201 202 247 224 183 287 256 207 161 168 158
169 167 188 201 219 210 210 229 235 256 232 251 269 276 271 273 270 278 275 306 342 339 327 313 208 220 228 248 182 254 245 243 215 168 207 195 234 280 264 255 284 85 95 233 190
169 211 191 198 210 213 207 209 231 229 232 199 244 245 243 255 265 247 189 341 323 339 332 308 258 230 226 216 239 208 224 248 245 220 208 222 217 243 236 205 245 176 182 208 214
169 182 194 214 202 205 217 221 231 218 214 216 226 237 246 247 244 271 172 132 18 349 335 324 264 224 240 212 216 232 224 223 231 237 223 218 229 232 250 240 174 196 214 241 196
185 218 187 205 187 191 214 227 228 219 252 229 223 223 240 245 289 309 195 154 150 162 299 308 331 211 243 242 225 260 237 253 230 249 246 212 219 220 238 205 193 189 220 209 182